Preview of NWS' New Version of Forecast
This preview is not operational and should not be used for support decisions.
Latest weather observations around

Alexander City, Thomas C Russell Field Airport (KALX)

Using International System of Units (Switch to English Units)
Date/ Time (CST) Wind (kph) Vis. (km) Weather Sky Cond. Temp (°C) Rel. Humidity Wind Chill (°C) Heat Index (°C) Pressure Precip. (cm)
Air Dwpt 6 hour Altimeter (hPa) Sea level (hPa) 1 hr 3 hr 6 hr
Max Min
Feb 25 17:15 Calm 16.09 Light Drizzle SCT005 15 15     100%     1020.7        
Feb 25 16:55 Calm 16.09 Light Rain SCT005 BKN010 15 15     100%     1020.7   0    
Feb 25 16:35 Calm 16.09 Light Rain SCT005 SCT010 16 16     100%     1020.3   0    
Feb 25 16:15 Calm 16.09 Light Rain BKN004 BKN010 16 16     100%     1020   0    
Feb 25 15:55 Calm 11.27 Light Rain SCT006 BKN010 BKN015 16 16     100%     1020.3   0    
Feb 25 15:35 Calm 16.09 Light Rain SCT003 SCT009 SCT075 16 16     100%     1019.7        
Feb 25 15:15 Calm 16.09 Light Rain SCT003 SCT009 SCT075 16 16     99%     1019.7        
Feb 25 14:55 SSE 8 16.09 Partly Cloudy SCT075 16 16     100%     1019        
Feb 25 14:35 SE 8 16.09 Light Rain CLR 16 16     100%     1019        
Feb 25 14:15 Calm 16.09 Clear CLR 16 16     100%     1019.7        
Feb 25 13:55 W 15 16.09 Clear CLR 15 15     100%     1020        
Feb 25 13:35 Calm 16.09 Light Rain SCT004 SCT010 SCT085 15 15     100%     1019.7        
Feb 25 13:15 SSE 5 16.09 Light Rain SCT004 SCT010 SCT075 15 15     100%     1019.7        
Feb 25 12:55 ESE 11 16.09 Partly Cloudy SCT006 SCT075 15 15     100%     1019.7        
Feb 25 12:35 SE 9 16.09 Mostly Cloudy BKN006 BKN065 15 15     100%     1020        
Feb 25 12:15 SE 9 16.09 Partly Cloudy SCT006 SCT065 15 15     100%     1020.3        
Feb 25 11:55 SE 9 16.09 Light Rain SCT006 SCT075 15 15     100%     1021       1
Feb 25 11:35 Calm 16.09 Partly Cloudy SCT004 SCT075 15 15     100%     1021.7        
Feb 25 11:15 Calm 16.09 Partly Cloudy SCT004 SCT075 14 14     100%     1022        
Feb 25 10:55 Calm 16.09 Partly Cloudy SCT006 SCT009 SCT075 14 14     100%     1022   0    
Feb 25 10:35 N 5 16.09 Light Rain BKN006 14 14     100%     1022.4   0    
Feb 25 10:15 WNW 13 16.09 Light Rain BKN006 BKN010 BKN024 14 14     100%     1023        
Feb 25 09:55 Calm 16.09 Light Drizzle BKN006 BKN010 BKN013 14 14     100%     1022.7   0    
Feb 25 09:35 N 8 16.09 Drizzle BKN006 OVC013 14 14     100%     1022   0    
Feb 25 09:15 Calm 11.27 Light Rain OVC006 14 14     100%     1021.3   0    
Feb 25 08:55 Calm 8.05 Rain BKN006 OVC009 14 14     100%     1021.3   0 1  
Feb 25 08:35 Calm 4.02 Rain BKN006 OVC011 14 14     100%     1021.3   0    
Feb 25 08:15 NW 9 4.02 Heavy Rain BKN008 OVC014 14 14     100%     1020.7   0    
Feb 25 07:55 NW 8 4.83 Rain SCT007 OVC012 14 14     100%     1020.3   1    
Feb 25 07:35 WNW 9 4.83 Light Rain SCT007 OVC011 15 15     100%     1020   1    
Feb 25 07:15 NW 8 3.22 Heavy Rain SCT006 OVC012 15 15     100%     1019.7   0    
Feb 25 06:55 SW 11 16.09 Cloudy OVC012 20 20     100%     1018.3        
Feb 25 06:35 S 18 16.09 Cloudy OVC012 20 20     100%     1017.3        
Feb 25 06:15 SSW 15 16.09 Cloudy OVC012 20 20     100%     1017.3        
Feb 25 05:55 S 11 16.09 Cloudy BKN012 OVC017 19 19     100%     1017.3        
Feb 25 05:35 S 15 16.09 Cloudy BKN010 OVC017 19 19     100%     1017.3        
Feb 25 05:15 S 13 16.09 Cloudy BKN012 OVC018 19 19     100%     1017.3        
Feb 25 04:55 S 13 16.09 Cloudy BKN014 OVC019 20 20     100%     1016.9        
Feb 25 04:35 S 11 16.09 Light Rain OVC014 20 20     100%     1016.9        
Feb 25 04:15 SSW 17 16.09 Cloudy BKN014 OVC019 20 20     98%     1016.9        
Feb 25 03:55 SSW 15 16.09 Cloudy BKN014 OVC020 20 20     97%     1016.9        
Feb 25 03:35 SSW 15 16.09 Cloudy BKN014 OVC021 20 20     97%     1016.9        
Feb 25 03:15 S 18 16.09 Cloudy BKN016 OVC021 20 20     97%     1016.9        
Feb 25 02:55 S 17 16.09 Cloudy OVC016 20 19     96%     1016.9        
Feb 25 02:35 SSW 18 16.09 Cloudy OVC016 20 19     96%     1017.3        
Feb 25 02:15 SSW 18 16.09 Cloudy OVC016 20 19     96%     1017.3        
Feb 25 01:55 SSW 18 16.09 Cloudy OVC016 20 19     97%     1017.6        
Feb 25 01:35 SSW 18 16.09 Cloudy OVC016 20 19     97%     1017.6        
Feb 25 01:15 SSW 17 16.09 Cloudy OVC016 20 19     97%     1018        
Feb 25 00:55 SSW 13 16.09 Cloudy OVC016 20 19     97%     1018        
Feb 25 00:35 SSW 18 16.09 Cloudy OVC016 20 19     96%     1018        
Feb 25 00:15 SSW 17 16.09 Cloudy OVC016 20 19     97%     1018        
Feb 24 23:55 SSW 18 16.09 Mostly Cloudy BKN016 20 19     96%     1018.3        
Feb 24 23:35 S 11 16.09 Partly Cloudy SCT018 20 19     94%     1018.3        
Feb 24 23:15 S 13 16.09 Partly Cloudy SCT018 SCT095 20 19     92%     1018.3        
Feb 24 22:55 S 15 16.09 Clear CLR 20 19     91%     1018.3        
Feb 24 22:35 SSW 18 16.09 Clear CLR 20 18     88%     1018.3        
Feb 24 22:15 SSW 21 16.09 Clear CLR 20 18     88%     1018.3        
Feb 24 21:55 S 15 16.09 Clear CLR 21 18     86%     1018        
Feb 24 21:35 SSW 17 16.09 Clear CLR 21 18     84%     1018        
Feb 24 21:15 SSW 18 16.09 Clear CLR 21 18     82%     1018        
Feb 24 20:55 SSW 15 16.09 Clear CLR 21 18     81%   22 1018        
Feb 24 20:35 SSW 15 16.09 Clear CLR 22 18     78%   22 1018        
Feb 24 20:15 S 11 16.09 Clear CLR 22 17     76%   22 1017.6        
Feb 24 19:55 S 21 16.09 Clear CLR 22 17     73%   23 1017.3        
Feb 24 19:35 S 17 16.09 Clear CLR 23 17     72%   23 1017.3        
Feb 24 19:15 SSW 17 16.09 Clear CLR 23 18     72%   23 1017.3        
Feb 24 18:55 S 21 16.09 Clear CLR 23 18     71%   24 1017.3        
Feb 24 18:35 SSW 18 16.09 Clear CLR 23 18     72%   23 1017.3        
Feb 24 18:15 S 13 16.09 Clear CLR 23 18     71%   24 1016.9        
Feb 24 17:55 S 11 16.09 Clear CLR 24 18     71%   24 1016.9        
Feb 24 17:35 S 9 16.09 Clear CLR 24 18     70%   24 1016.9        
Feb 24 17:15 S 13 16.09 Partly Cloudy SCT050 SCT080 25 18     67%   25 1016.6        
Feb 24 16:55 S 8 16.09 Clear CLR 25 18     65%   25 1016.6        
Feb 24 16:35 S 9 16.09 Partly Cloudy SCT080 25 18     64%   26 1016.6        
Feb 24 16:15 S 13 16.09 Partly Cloudy SCT070 SCT080 25 18     66%   25 1016.6        
Feb 24 15:55 SSW 17 16.09 Partly Cloudy SCT047 SCT050 25 18     65%   25 1016.9        
Feb 24 15:35 SSW 21 16.09 Partly Cloudy SCT045 SCT050 25 18     65%   26 1017.3        
Feb 24 15:15 SSW 18 16.09 Clear CLR 25 18     65%   26 1017.3        
Feb 24 14:55 SSW 26 16.09 Partly Cloudy SCT037 25 18     66%   25 1017.6        
Feb 24 14:35 S 13 16.09 Partly Cloudy SCT037 SCT048 25 18     68%   25 1018        
Feb 24 14:15 S 21 16.09 Partly Cloudy SCT035 SCT046 25 19     70%   25 1018.3        
Feb 24 13:55 S 21 16.09 Partly Cloudy SCT033 SCT046 24 18     71%   24 1018.6        
Feb 24 13:35 S 13 16.09 Mostly Cloudy SCT033 BKN044 23 19     74%   24 1019        
Feb 24 13:15 S 17 16.09 Mostly Cloudy SCT031 BKN038 BKN044 23 18     75%   23 1019.7        
Feb 24 12:55 S 15 16.09 Partly Cloudy SCT029 SCT035 23 18     74%   24 1019.7        
Feb 24 12:35 SSW 18 16.09 Mostly Cloudy SCT027 BKN035 23 19     76%   23 1020.3        
Feb 24 12:15 SSW 24 16.09 Partly Cloudy SCT023 SCT027 SCT033 22 19     80%   23 1020.7        
Feb 24 11:55 S 17 16.09 Cloudy SCT020 BKN026 OVC033 21 18     85%   22 1021.7        
Feb 24 11:35 S 13 16.09 Cloudy BKN017 OVC023 20 18     89%     1021.7        
Feb 24 11:15 SW 17 16.09 Cloudy OVC017 20 18     89%     1022.4        
Feb 24 10:55 SSW 17 16.09 Mostly Cloudy BKN016 BKN022 20 18     88%     1022.7        
Feb 24 10:35 SSW 18 16.09 Mostly Cloudy BKN016 20 18     89%     1022.7        
Feb 24 10:15 SSW 17 16.09 Partly Cloudy SCT014 20 18     91%     1022.7        
Feb 24 09:55 S 21 16.09 Mostly Cloudy BKN014 19 18     93%     1023        
Feb 24 09:35 SSW 24 16.09 Mostly Cloudy BKN014 BKN019 20 18     92%     1023        
Feb 24 09:15 SW 13 16.09 Mostly Cloudy BKN012 BKN018 20 18     93%     1023        
Feb 24 08:55 S 9 16.09 Mostly Cloudy BKN014 19 18     94%     1023        
Feb 24 08:35 S 15 16.09 Partly Cloudy SCT014 19 18     93%     1022.7        
Feb 24 08:15 SSW 11 16.09 Clear CLR 19 19     99%     1022.7        
Feb 24 07:55 S 5 16.09 Clear CLR 18 18     100%     1022.7        
Feb 24 07:35 SE 8 16.09 Clear CLR 18 18     100%     1022.4        
Feb 24 07:15 Calm 16.09 Clear CLR 17 17     100%     1022.7        
Feb 24 06:55 Calm 16.09 Clear CLR 17 17     100%     1022.4        
Feb 24 06:35 Calm 16.09 Clear CLR 17 17     100%     1022.4        
Feb 24 06:15 Calm 16.09 Clear CLR 17 17     100%     1022        
Feb 24 05:55 Calm 16.09 Clear CLR 17 17     100%     1022.4        
Feb 24 05:35 Calm 16.09 Clear CLR 17 17     100%     1022        
Feb 24 05:15 Calm 16.09 Clear CLR 17 17     100%     1022        
Feb 24 04:55 Calm 16.09 Clear CLR 17 17     100%     1021.7        
Feb 24 04:35 Calm 16.09 Clear CLR 17 17     100%     1022        
Feb 24 04:15 SSE 5 16.09 Clear CLR 17 17     100%     1022        
Feb 24 03:55 Calm 16.09 Clear CLR 18 18     100%     1022        
Feb 24 03:35 Calm 16.09 Clear CLR 17 17     100%     1022.4        
Feb 24 03:15 Calm 16.09 Clear CLR 17 17     100%     1022.4        
Feb 24 02:55 Calm 4.02 Fog/Mist CLR 17 17     100%     1022.4        
Feb 24 02:35 Calm 1.21 Fog/Mist VV005 17 17     100%     1022.4        
Feb 24 02:15 Calm 4.02 Fog/Mist SCT070 SCT075 18 18     100%     1022.4        
Feb 24 01:55 Calm 4.83 Fog/Mist BKN070 17 17     100%     1022.7        
Feb 24 01:35 Calm 6.44 Fog/Mist SCT055 BKN070 18 18     100%     1023        
Feb 24 01:15 Calm 11.27 Mostly Cloudy SCT046 BKN055 BKN065 18 18     100%     1023        
Feb 24 00:55 Calm 16.09 Mostly Cloudy SCT046 BKN055 18 18     100%     1023        
Feb 24 00:35 Calm 16.09 Mostly Cloudy BKN046 BKN050 BKN065 19 19     100%     1023.4        
Feb 24 00:15 Calm 16.09 Cloudy BKN044 OVC055 18 18     100%     1023.7        
Feb 23 23:55 Calm 11.27 Mostly Cloudy BKN044 BKN060 18 18     100%     1023.7       0
Feb 23 23:35 Calm 11.27 Partly Cloudy SCT044 18 18     100%     1023.7        
Feb 23 23:15 Calm 16.09 Partly Cloudy SCT027 SCT033 SCT041 19 19     100%     1023.7        
Feb 23 22:55 Calm 16.09 Mostly Cloudy SCT029 BKN035 BKN046 19 19     100%     1024.1        
Feb 23 22:35 SSW 5 8.05 Fog/Mist SCT036 BKN046 BKN060 18 18     100%     1024.1        
Feb 23 22:15 Calm 6.44 Fog/Mist SCT034 SCT042 SCT055 18 18     100%     1024.1        
Feb 23 21:55 Calm 6.44 Fog/Mist SCT036 SCT042 SCT060 18 18     100%     1024.1        
Feb 23 21:35 Calm 11.27 Mostly Cloudy BKN039 BKN048 BKN060 19 19     100%     1024.1        
Feb 23 21:15 Calm 11.27 Mostly Cloudy SCT043 SCT048 BKN070 19 19     100%     1024.1        
Feb 23 20:55 Calm 16.09 Partly Cloudy SCT046 SCT070 19 19     100%     1024.1   0 0  
Feb 23 20:35 Calm 8.05 Fog/Mist SCT045 SCT050 SCT070 19 19     100%     1024.1   0    
Feb 23 20:15 Calm 16.09 Light Rain SCT047 SCT060 SCT070 19 19     100%     1024.1   0    
Feb 23 19:55 Calm 11.27 Light Rain SCT008 SCT017 OVC047 20 20     100%     1024.4   0    
Feb 23 19:35 S 9 11.27 Light Rain SCT015 BKN048 OVC060 20 19     98%     1024.4   0    
Feb 23 19:15 Calm 16.09 Light Rain BKN050 OVC060 21 19     92%     1024.4        
Feb 23 18:55 Calm 16.09 Mostly Cloudy BKN050 BKN070 BKN085 21 19     89%     1024.1        
Feb 23 18:35 Calm 16.09 Partly Cloudy SCT050 SCT070 SCT075 22 19     85%   22 1024.1        
Feb 23 18:15 Calm 16.09 Mostly Cloudy SCT050 SCT070 BKN085 22 19     83%   23 1024.1        
Feb 23 17:55 Calm 16.09 Partly Cloudy SCT060 SCT085 SCT095 23 19     79%   23 1024.1        
Feb 23 17:35 Calm 16.09 Partly Cloudy SCT060 SCT095 23 19     76%   24 1024.1        
Feb 23 17:15 Calm 16.09 Clear CLR 24 18     70%   25 1024.1        
Feb 23 16:55 SSE 5 16.09 Partly Cloudy SCT050 SCT060 25 18     64%   26 1024.1        
Feb 23 16:35 Calm 16.09 Mostly Cloudy BKN050 BKN060 26 18     63%   27 1023.7        
Feb 23 16:15 SSE 8 16.09 Partly Cloudy SCT050 26 18     61%   27 1024.1        
Feb 23 15:55 SSE 9 16.09 Clear CLR 26 18     62%   26 1024.1        
Feb 23 15:35 SSW 5 16.09 Clear CLR 27 18     60%   28 1024.4        
Feb 23 15:15 S 13 16.09 Partly Cloudy SCT060 27 18     59%   28 1024.4        
Feb 23 14:55 S 8 16.09 Partly Cloudy SCT050 SCT065 SCT085 26 18     60%   27 1024.7        
Feb 23 14:35 SW 13 16.09 Clear CLR 27 18     59%   28 1025.1        
Feb 23 14:15 SE 11 16.09 Clear CLR 26 18     62%   26 1025.1        
Feb 23 13:55 SW 8 16.09 Clear CLR 26 18     64%   26 1025.4        
Feb 23 13:35 S 11 16.09 Partly Cloudy SCT044 26 19     64%   26 1025.7        
Feb 23 13:15 S 11 16.09 Partly Cloudy SCT044 26 19     63%   26 1026.1        
Feb 23 12:55 SW 17 16.09 Partly Cloudy SCT042 SCT048 SCT055 26 19     63%   28 1026.4        
Feb 23 12:35 SSW 11 16.09 Partly Cloudy SCT040 SCT048 SCT055 25 18     66%   26 1026.8        
Feb 23 12:15 SSW 18 16.09 Partly Cloudy SCT040 SCT050 25 18     65%   26 1027.1        
Feb 23 11:55 SSE 9 16.09 Partly Cloudy SCT038 SCT060 25 18     68%   25 1027.8        
Feb 23 11:35 SE 13 16.09 Mostly Cloudy BKN036 BKN043 25 19     70%   25 1028.1        
Feb 23 11:15 ESE 11 16.09 Partly Cloudy SCT036 24 19     72%   24 1028.5        
Feb 23 10:55 SSE 9 16.09 Partly Cloudy SCT032 SCT039 24 19     74%   24 1028.8        
Feb 23 10:35 SE 9 16.09 Clear CLR 24 19     75%   24 1028.8        
Feb 23 10:15 SSE 9 16.09 Clear CLR 23 19     77%   23 1029.1        
Feb 23 09:55 SSE 11 16.09 Clear CLR 22 19     82%   22 1029.1        
Feb 23 09:35 Calm 16.09 Clear CLR 21 18     85%   22 1029.1        
Feb 23 09:15 SSE 8 16.09 Clear CLR 20 18     88%     1029.1        
Feb 23 08:55 SE 8 16.09 Clear CLR 19 18     92%     1029.1        
Feb 23 08:35 SSE 5 16.09 Clear CLR 19 18     94%     1029.1        
Feb 23 08:15 SE 8 16.09 Clear CLR 18 18     96%     1028.8        
Feb 23 07:55 ESE 5 16.09 Clear CLR 17 17     100%     1028.5        
Feb 23 07:35 Calm 11.27 Clear CLR 16 16     100%     1028.5        
Feb 23 07:15 Calm 11.27 Clear CLR 14 14     100%     1028.5        
Feb 23 06:55 Calm 8.05 Fog/Mist CLR 13 13     100%     1028.5        
Feb 23 06:35 Calm 8.05 Fog/Mist CLR 13 13     100%     1028.1        
Feb 23 06:15 Calm 8.05 Fog/Mist CLR 13 13     100%     1028.1        
Feb 23 05:55 Calm 8.05 Fog/Mist CLR 14 14     100%     1028.1        
Feb 23 05:35 Calm 8.05 Fog/Mist CLR 14 14     100%     1028.1        
Feb 23 05:15 Calm 11.27 Clear CLR 14 14     100%     1027.8        
Feb 23 04:55 N 5 11.27 Clear CLR 14 14     100%     1027.8        
Feb 23 04:35 Calm 11.27 Clear CLR 14 14     100%     1027.8        
Feb 23 04:15 Calm 6.44 Fog/Mist CLR 14 14     100%     1027.8        
Feb 23 03:55 Calm 11.27 Clear CLR 15 15     100%     1027.8        
Feb 23 03:35 Calm 16.09 Clear CLR 15 15     100%     1028.1        
Feb 23 03:15 Calm 11.27 Clear CLR 15 15     100%     1027.8        
Feb 23 02:55 Calm 6.44 Fog/Mist CLR 15 15     100%     1027.8        
Feb 23 02:35 Calm 11.27 Clear CLR 15 15     100%     1028.1        
Feb 23 02:15 Calm 11.27 Clear CLR 15 15     100%     1028.1        
Feb 23 01:55 Calm 11.27 Clear CLR 15 15     100%     1028.1        
Feb 23 01:35 Calm 8.05 Fog/Mist CLR 16 16     100%     1028.1        
Feb 23 01:15 Calm 11.27 Clear CLR 17 17     100%     1028.5        
Feb 23 00:55 Calm 16.09 Clear CLR 17 17     100%     1028.5        
Feb 23 00:35 Calm 16.09 Clear CLR 17 17     100%     1028.1        
Feb 23 00:15 Calm 16.09 Clear CLR 17 17     100%     1028.1        
Feb 22 23:55 Calm 16.09 Clear CLR 16 16     100%     1028.5        
Feb 22 23:35 Calm 16.09 Clear CLR 17 17     100%     1028.5        
Feb 22 23:15 Calm 16.09 Clear CLR 17 17     100%     1028.5        
Feb 22 22:55 Calm 16.09 Clear CLR 16 16     100%     1028.5        
Feb 22 22:35 Calm 11.27 Clear CLR 15 15     100%     1028.5        
Feb 22 22:15 Calm 16.09 Clear CLR 16 16     100%     1028.5        
Feb 22 21:55 Calm 16.09 Clear CLR 17 17     100%     1028.5        
Feb 22 21:35 Calm 16.09 Clear CLR 17 17     100%     1028.1        
Feb 22 21:15 Calm 16.09 Partly Cloudy SCT050 SCT060 17 17     100%     1028.1        
Feb 22 20:55 Calm 16.09 Partly Cloudy SCT048 SCT055 17 17     100%     1028.1        
Feb 22 20:35 Calm 16.09 Partly Cloudy SCT050 18 18     100%     1028.1        
Feb 22 20:15 Calm 16.09 Clear CLR 18 18     100%     1028.1        
Feb 22 19:55 Calm 16.09 Clear CLR 18 18     100%     1028.1        
Feb 22 19:35 Calm 16.09 Partly Cloudy SCT050 19 19     100%     1028.1        
Feb 22 19:15 Calm 16.09 Partly Cloudy SCT050 19 18     94%     1028.1        
Feb 22 18:55 Calm 16.09 Clear CLR 19 18     96%     1027.8        
Feb 22 18:35 Calm 16.09 Clear CLR 20 19     95%     1027.8        
Feb 22 18:15 Calm 16.09 Partly Cloudy SCT065 21 20     92%     1027.8        
Feb 22 17:55 Calm 16.09 Partly Cloudy SCT055 22 19     87%   22 1027.8        
Feb 22 17:35 Calm 16.09 Partly Cloudy SCT055 23 20     83%   23 1027.8        
Jun 12 07:15 Calm 16.09 Mostly Cloudy BKN004 23 22     94%   24 1022        
Jun 12 05:35 Calm 16.09 Mostly Cloudy BKN011 21 20     96%     1021.3        
Jun 12 01:15 Calm 16.09 Partly Cloudy SCT033 22 22     96%   23 1021        
Jun 11 17:55 ESE 5 16.09 Clear CLR 29 21     60%   31 1019        
Jun 11 16:55 SE 9 16.09 Clear   30 20     54%   33 1019.7        
Jun 11 16:15 SE 8 16.09 Clear CLR 30 20     54%   33 1020.3        
Jun 11 14:55 SE 9 16.09 Clear   30 20     54%   32 1020.7        
Notice The following observation data may not be complete
Jun 11 05:15   16.09 Clear CLR          %              
Jun 10 10:15 SE 5 16.09 Clear CLR 27 17     53%   28 1019.7        
Notice The following observation data may not be complete
Jun 09 16:15   16.09 Partly Cloudy SCT055 SCT065          %              
Jun 08 17:35 NNW 5 16.09 Clear CLR 26 14     46%   26 1011.2        
Notice The following observation data may not be complete
Jun 08 12:15   16.09 Clear CLR          %              
Notice The following observation data may not be complete
Jun 08 11:15   16.09 Partly Cloudy SCT035          %              
Jun 08 09:15 SE 5 16.09 Partly Cloudy SCT041 21 15     71%     1013.6        
Notice The following observation data may not be complete
Jun 08 07:55   16.09 Partly Cloudy SCT040 SCT090          %              
Jun 08 07:35 Calm 16.09 Clear CLR 18 15     83%     1013.2        
Jun 07 20:55 N 8 16.09 Clear CLR 22 15     63%   22 1010.8        
Jun 07 15:15 E 11 16.09 Partly Cloudy SCT032 SCT060 26 19     68%   26 1008.8        
Jun 07 10:55 E 9 16.09 Mostly Cloudy BKN024 BKN031 24 19     73%   25 1009.5        
Jun 06 03:35 Calm 8.05 Fog/Mist OVC004 22 21     99%   23 1008.8        
Jun 06 00:55 Calm 11.27 Cloudy OVC002 22 22     98%   23 1010.2       0
Notice The following observation data may not be complete
Jun 05 18:35   16.09 Partly Cloudy SCT012          %              
Jun 05 16:35 WSW 8 16.09 Partly Cloudy SCT018 25 21     82%   25 1010.2        
Jun 05 15:15 S 15 16.09 Partly Cloudy SCT040 26 21     75%   26 1009.5